Weather History for Columbia, MO

Change the Weather History Date:

Wednesday, May 8, 2013

  Actual Average Record
Temperature  
Mean Temperature 67 °F 62 °F  
Max Temperature 78 °F 72 °F 90 °F (1979)
Min Temperature 55 °F 51 °F 34 °F (1917)
Degree Days  
Heating Degree Days 0 5  
Month to date heating degree days 76 43  
Since 1 July heating degree days 4837 4946  
Cooling Degree Days 2 2  
Month to date cooling degree days 9 9  
Year to date cooling degree days 31 34  
Growing Degree Days 16 (Base 50)    
Moisture  
Dew Point 54 °F    
Average Humidity 64    
Maximum Humidity 84    
Minimum Humidity 43    
Precipitation  
Precipitation T in 0.17 in 1.93 in (1939)
Month to date precipitation 1.19 1.36  
Year to date precipitation 18.11 12.93  
Snow  
Snow 0.00 in 0.00 in T in (1923)
Month to date snowfall T 0.0  
Since 1 July snowfall 35.0 18.0  
Snow Depth 0.00 in    
Sea Level Pressure  
Sea Level Pressure 29.99 in    
Wind  
Wind Speed 7 mph (SSE)    
Max Wind Speed 20 mph    
Max Gust Speed 24 mph    
Visibility 10 miles    
Events Rain    
T = Trace of Precipitation, MM = Missing Value Source: NWS Daily Summary

Daily Weather History Graph

Daily Weather History Graph

Search for Another Location

Airport:

Trip Planner

Search our weather history database for the weather conditions in past years. The results will help you decide how hot, cold, wet, or windy it might be!

Date:

Astronomy

May. 08, 2013 Rise Set
Actual Time 6:03 AM CDT 8:08 PM CDT
Civil Twilight 5:33 AM CDT 8:37 PM CDT
Nautical Twilight 4:57 AM CDT 9:13 PM CDT
Astronomical Twilight 4:18 AM CDT 9:52 PM CDT
Moon 5:10 AM CDT (5/8) 7:07 PM CDT (5/8)
Length of Visible Light 15h 03m
Length of Day
14h 05m
Waning Crescent, 2% of the Moon is Illuminated
May 8
Waning Crescent
May 9
New
May 17
First Quarter
May 24
Full
May 31
Last Quarter

Hourly Weather History & Observations

Time (CDT) Temp. Dew Point Humidity Pressure Visibility Wind Dir Wind Speed Gust Speed Precip Events Conditions
12:54 AM 64.0 °F 46.9 °F 54% 29.99 in 10.0 mi ESE 4.6 mph - N/A   Clear
1:54 AM 62.1 °F 46.9 °F 58% 29.99 in 10.0 mi ESE 6.9 mph - N/A   Clear
2:54 AM 60.1 °F 48.0 °F 64% 29.98 in 10.0 mi SE 6.9 mph - N/A   Clear
3:54 AM 57.0 °F 48.9 °F 74% 29.98 in 10.0 mi SE 5.8 mph - N/A   Clear
4:54 AM 57.0 °F 48.9 °F 74% 29.99 in 10.0 mi SSE 5.8 mph - N/A   Clear
5:54 AM 55.9 °F 48.9 °F 77% 30.00 in 10.0 mi SSE 4.6 mph - N/A   Clear
6:54 AM 55.9 °F 50.0 °F 80% 30.01 in 10.0 mi SSE 5.8 mph - N/A   Clear
7:54 AM 60.1 °F 54.0 °F 80% 30.03 in 10.0 mi South 5.8 mph - N/A   Clear
8:54 AM 66.0 °F 55.9 °F 70% 30.03 in 10.0 mi South 5.8 mph - N/A   Clear
9:54 AM 71.1 °F 55.9 °F 59% 30.02 in 10.0 mi South 4.6 mph - N/A   Clear
10:54 AM 75.0 °F 55.0 °F 50% 30.03 in 10.0 mi SSW 9.2 mph - N/A   Partly Cloudy
11:54 AM 75.9 °F 55.0 °F 48% 30.03 in 10.0 mi SW 11.5 mph - N/A   Scattered Clouds
12:54 PM 77.0 °F 54.0 °F 45% 30.01 in 10.0 mi SSW 8.1 mph - N/A   Mostly Cloudy
1:54 PM 73.0 °F 55.0 °F 53% 30.01 in 10.0 mi WSW 18.4 mph - N/A   Scattered Clouds
2:54 PM 68.0 °F 57.9 °F 70% 30.02 in 10.0 mi SW 10.4 mph - 0.00 in Rain Light Rain
3:54 PM 66.9 °F 57.9 °F 73% 30.01 in 10.0 mi West 3.5 mph - 0.00 in Rain Light Rain
4:54 PM 64.9 °F 60.1 °F 84% 30.01 in 10.0 mi Calm Calm - 0.00 in   Overcast
5:54 PM 66.9 °F 57.0 °F 70% 29.99 in 10.0 mi East 5.8 mph - N/A   Mostly Cloudy
6:54 PM 66.9 °F 57.0 °F 70% 29.97 in 10.0 mi East 6.9 mph - N/A   Scattered Clouds
7:54 PM 64.9 °F 57.0 °F 75% 29.96 in 10.0 mi ESE 4.6 mph - N/A   Clear
8:54 PM 63.0 °F 57.0 °F 81% 29.96 in 10.0 mi ESE 8.1 mph - N/A   Clear
9:54 PM 62.1 °F 57.9 °F 86% 29.96 in 10.0 mi ESE 6.9 mph - N/A   Overcast
10:54 PM 63.0 °F 57.0 °F 81% 29.95 in 10.0 mi ESE 8.1 mph - N/A   Overcast
11:54 PM 63.0 °F 57.0 °F 81% 29.95 in 10.0 mi SE 8.1 mph - N/A   Mostly Cloudy